Hamilton, Ontario

8:44 AM EDT on March 24, 2017 (GMT -0400)
Hamilton

Weather History for CXHM - November, 2013

Change the Weather History Date:

Saturday, November 16, 2013

  Actual Average Record
Temperature  
Mean Temperature 46 °F -  
Max Temperature 57 °F - - ()
Min Temperature 35 °F - - ()
Degree Days  
Heating Degree Days 19    
Moisture  
Dew Point 38 °F    
Average Humidity 72    
Maximum Humidity 92    
Minimum Humidity 53    
Precipitation  
Precipitation 0.00 in - - ()
Sea Level Pressure  
Sea Level Pressure 30.09 in    
Wind  
Wind Speed 2 mph ()    
Max Wind Speed 5 mph    
Max Gust Speed -    
T = Trace of Precipitation, MM = Missing Value Source: Averaged Metar Reports

Daily Weather History Graph

Daily Weather History Graph

Search for Another Location

Airport or City:

Trip Planner

Search our weather history database for the weather conditions in past years. The results will help you decide how hot, cold, wet, or windy it might be!

Date:

Astronomy

Nov. 16, 2013 Rise Set
Actual Time 7:14 AM EST 4:54 PM EST
Civil Twilight 6:43 AM EST 5:24 PM EST
Nautical Twilight 6:08 AM EST 5:59 PM EST
Astronomical Twilight 5:35 AM EST 6:33 PM EST
Moon 4:29 PM EST (11/16) 6:07 AM EST (11/16)
Length of Visible Light 10h 41m
Length of Day
9h 39m
Waxing Gibbous, 99% of the Moon is Illuminated
Nov 16
Waxing Gibbous
Nov 17
Full
Nov 25
Last Quarter
Dec 2
New
Dec 9
First Quarter

Hourly Weather History & Observations

Time (EST) Temp. Windchill Dew Point Humidity Pressure Visibility Wind Dir Wind Speed Gust Speed Precip Events Conditions
12:00 AM 42.1 °F 40.2 °F 34.0 °F 73% 30.08 in - West 3.5 mph - N/A   Unknown
1:00 AM 42 °F - 34 °F 63% 30.09 in - West 3.5 mph - -  
1:00 AM 41.9 °F 40.0 °F 33.6 °F 72% 30.09 in - West 3.5 mph - N/A   Unknown
2:00 AM 43.7 °F - 33.8 °F 68% 30.10 in - West 2.3 mph - N/A   Unknown
3:00 AM 43.5 °F - 33.8 °F 69% 30.11 in - Calm Calm - N/A   Unknown
4:00 AM 42.4 °F - 34.3 °F 73% 30.12 in - Calm Calm - N/A   Unknown
5:00 AM 40.1 °F - 31.5 °F 71% 30.12 in - Calm Calm - N/A   Unknown
6:00 AM 37.4 °F - 31.6 °F 80% 30.13 in - Calm Calm - N/A   Unknown
7:00 AM 36 °F - 33 °F 82% 30.15 in - Calm Calm - -  
7:00 AM 35.8 °F - 31.5 °F 84% 30.15 in - Calm Calm - N/A   Unknown
8:00 AM 36.5 °F - 34.3 °F 92% 30.18 in - Calm Calm - N/A   Unknown
9:00 AM 46.6 °F - 38.1 °F 72% 30.18 in - West 2.3 mph - N/A   Unknown
10:00 AM 51.1 °F - 39.7 °F 65% 30.17 in - SW 2.3 mph - N/A   Unknown
11:00 AM 54.5 °F - 40.1 °F 58% 30.16 in - SSW 3.5 mph - N/A   Unknown
12:00 PM 54.5 °F - 41.7 °F 62% 30.15 in - South 4.6 mph - N/A   Unknown
1:00 PM 55 °F - 43 °F 53% 30.13 in - SSW 4.6 mph - -  
1:00 PM 55.4 °F - 42.6 °F 62% 30.13 in - SSW 4.6 mph - N/A   Unknown
2:00 PM 56.3 °F - 42.3 °F 59% 30.10 in - South 4.6 mph - N/A   Unknown
3:00 PM 55.8 °F - 42.1 °F 60% 30.08 in - South 3.5 mph - N/A   Unknown
4:00 PM 55.2 °F - 41.5 °F 60% 30.06 in - SE 3.5 mph - N/A   Unknown
5:00 PM 52.2 °F - 41.7 °F 68% 30.05 in - ENE 2.3 mph - N/A   Unknown
6:00 PM 50.4 °F - 41.4 °F 71% 30.04 in - ENE 1.2 mph - N/A   Unknown
7:00 PM 46 °F - 40 °F 72% 30.03 in - Calm Calm - -  
7:00 PM 45.7 °F - 39.9 °F 80% 30.03 in - Calm Calm - N/A   Unknown
8:00 PM 44.6 °F - 40.5 °F 85% 30.01 in - Calm Calm - N/A   Unknown
9:00 PM 45.5 °F - 41.5 °F 86% 29.99 in - Calm Calm - N/A   Unknown
10:00 PM 46.9 °F - 41.7 °F 82% 29.96 in - ENE 1.2 mph - N/A   Unknown
11:00 PM 46.6 °F - 41.7 °F 83% 29.94 in - Calm Calm - N/A   Unknown